FENGYUN 1C DEB

Satellite information

Favourite Embed

Satellite Type and Status

DEBRISIN ORBIT

Key statistics

Satellite FENGYUN 1C DEB at a glance.

Uptime

9495

Days in orbit

Revolutions

≈ 14.2

Per day

Orbit

SSO

Sun Synchronous Orbit

Inclination

99.1

Latest

Satellite identification and parameters

Extended collection of information and parameters for FENGYUN 1C DEB.

Object identification

Identified? True

Debris? True

Object name: FENGYUN 1C DEB

International designator: 1999-025DXF

Object number (NORAD): 36278

Object ID (CCSDS): 36278

Country: PEOPLES REPUBLIC OF CHINA (PRC)

Current information (Y/N): Y

RCS size: SMALL

Orbital parameters

Period: 101.625 minutes

Inclination: 99.1255 deg

SMA: 7213.755 km

Apoapsis: 879.503 km

Periapsis: 791.737 km

RAAN: 38.6574 deg

Eccentricy: 0.0060833

Argument of periapsis: 194.2825 deg

Mean anomaly: 165.6631 deg

Mean motion: 14.16970082 rev/day

Mean motion (dot): 0.00000841 rev/day2

B* drag term: 0.00043406 1/REarth

Two-line elements (TLE)

Creation date: May 7, 2025, 3:14 a.m.

Reference frame: TEME

Reference center: EARTH

Epoch: May 6, 2025, 12:44 a.m. UTC

TLE line 0: 0 FENGYUN 1C DEB

TLE line 1: 1 36278U 99025DXF 25126.03111529 .00000841 00000-0 43406-3 0 9992

TLE line 2: 2 36278 99.1255 38.6574 0060833 194.2825 165.6631 14.16970082903506

Live tracking on map

Real-time ground track for satellite FENGYUN 1C DEB.

In-orbit conjunctions

A list of the most updated potential collisions computed for object FENGYUN 1C DEB.

Target Orbit TCA Probability of collision Miss distance Type
CZ-6A DEB LEO 2025-01-16 15:48:53 0.001232977 359.0 (m) DEBRIS
CZ-6A DEB LEO 2024-09-30 05:56:20 0.0001016411 202.0 (m) DEBRIS

Associated space launch

Chinese polar orbiting meteorological satellite

FENGYUN 1C DEB was lifted into orbit during the mission ‘Long March 4B | Feng Yun 1C’, on board a Long March 4B space rocket.

The launch took place on May 10, 1999, 1:33 a.m. from Launch Complex 7.

For more information about the launch, click the button.

Launch to space Long March 4B | Feng Yun 1C
Long March 4B | Feng Yun 1C

Agency: N/A

Status: Launch Successful

Launch date: May 10, 1999, 1:33 a.m. UTC

Rocket: Long March 4B

Launch pad: Launch Complex 7

Location: Taiyuan Satellite Launch Center, People's Republic of China

...

Latest news about this satellite

There are no fresh news available about this satellite. Check back as we update our databases every day.


Newsletter sign-up

Weekly statistics, charts and insights to help you stay on top of the space industry.